Terminal Aerodrome Forecast
Issued by NWS

Home | Current Version | Previous Version | Text Only | Print | Product List | Glossary On
Versions: 1 2 3 4 5 6 7 8 9 10 11 12 13 14 15 16 17
000
FTUS45 KTFX 280531
TAFCTB
TAF
KCTB 280531Z 2806/2906 26010KT 4SM FU BKN050
     FM281900 23015KT 5SM FU SCT040 SCT100=

USA.gov is the U.S. government's official web portal to all federal, state and local government web resources and services.